Temperature
24 23 23 23 29 30 29 29 29 29 29 28 27 27 28 27 27 24 21 21 20 19 18 19 19 19 19 19 19 19 19 19 19 19 19 19 18 18 18 18 18 18 18 18 18 18 18 18 18
23 23 24 28 31 29 29 29 29 28 28 27 27 26 26 24 22 21 20 20 20 19 19 18 19 19 19 19 19 19 19 19 19 19 18 18 18 18 18 18 18 18 18 18 18 18 18 18 18
24 24 27 31 31 30 29 29 29 28 27 27 27 26 25 23 21 21 20 20 20 19 18 19 19 19 19 19 19 19 19 19 19 19 18 18 18 18 18 18 18 18 18 18 18 18 18 18 18
24 26 30 32 30 30 30 29 29 29 28 27 27 26 23 21 21 21 20 20 20 19 19 19 19 19 19 19 19 19 19 19 19 18 18 18 18 18 18 18 18 18 18 18 18 18 18 18 18
26 30 32 31 30 30 30 29 29 29 28 27 27 26 23 20 21 20 20 20 20 20 19 19 19 19 19 19 19 19 19 19 18 18 18 18 18 18 18 18 18 18 18 18 18 18 18 18 18
29 32 32 31 30 30 30 29 29 29 28 27 27 26 22 20 20 20 20 20 20 20 19 18 19 19 19 19 19 19 19 19 18 18 18 18 18 18 18 18 18 18 18 18 18 18 18 18 18
31 33 32 31 31 31 30 29 30 29 28 27 27 26 22 20 20 20 20 20 20 20 19 18 18 19 19 19 19 19 19 18 18 18 18 18 18 18 18 18 18 18 18 18 18 18 18 18 18
30 33 32 32 31 31 30 29 29 29 28 26 26 27 24 20 20 20 19 19 20 20 19 19 19 18 18 18 19 19 19 18 18 18 18 18 18 18 18 18 18 18 18 18 18 18 18 18 18
29 33 32 32 32 31 30 30 29 28 27 26 26 26 24 20 20 19 19 19 19 19 19 19 19 18 18 18 18 18 18 18 18 18 18 18 17 17 17 17 18 18 18 18 18 18 18 18 18
31 32 32 32 32 32 31 30 29 29 28 27 25 23 21 20 20 20 20 19 19 19 19 19 19 18 18 18 18 18 18 18 18 17 17 18 18 17 17 18 18 18 18 18 18 18 18 17 17
32 32 32 32 31 31 31 30 30 30 30 28 26 23 21 20 20 20 20 20 19 19 19 19 19 18 18 18 18 18 18 18 18 18 18 18 18 17 17 17 17 17 17 17 17 17 17 17 17
32 32 31 31 31 31 31 31 30 30 30 28 26 23 22 21 21 21 21 20 20 19 19 19 19 18 18 18 18 18 18 18 18 18 18 18 18 17 17 17 17 17 17 17 17 17 17 17 17
31 32 31 31 30 31 30 31 30 30 28 26 24 23 22 22 22 21 21 20 20 19 19 19 19 19 19 19 18 18 18 18 18 18 18 17 17 17 17 17 17 17 17 17 17 17 17 17 17
31 31 31 31 31 30 31 31 30 29 27 26 24 23 23 22 22 21 21 20 20 20 20 19 19 19 19 19 19 18 18 18 18 18 18 18 18 17 17 17 17 17 17 17 17 17 17 17 17
30 31 32 31 31 31 31 31 31 29 27 26 25 24 23 23 22 21 21 20 20 20 20 20 20 20 19 19 19 18 18 18 18 18 18 18 18 17 17 17 17 17 17 17 17 17 17 17 17
32 32 31 32 31 31 31 31 31 29 28 27 26 24 23 22 22 22 21 21 20 20 20 20 20 20 20 19 19 18 18 18 18 18 18 18 18 18 18 17 17 17 17 17 17 17 17 17 17
31 31 31 31 31 31 31 31 31 29 28 28 26 25 24 23 22 22 21 21 20 20 21 21 20 20 20 19 19 18 18 18 18 18 18 18 18 18 18 18 18 17 17 17 17 17 17 17 17
31 31 31 31 31 31 31 31 31 29 29 29 27 26 25 24 23 22 22 21 21 21 21 21 20 20 20 19 19 19 18 18 18 18 18 18 18 18 18 18 18 17 17 17 17 17 17 17 17
31 31 31 31 31 31 31 31 31 30 29 29 28 27 25 24 24 22 22 21 21 21 21 21 20 20 20 19 19 19 19 18 18 18 18 18 18 18 18 18 18 18 17 17 17 17 17 17 17
30 30 31 30 30 30 31 31 31 30 29 29 28 27 26 25 24 23 22 21 21 21 21 21 21 20 20 20 20 19 19 18 18 18 18 18 18 18 18 18 18 18 17 17 17 17 17 18 17
30 30 30 30 30 30 31 31 31 30 29 28 28 27 27 26 25 23 22 22 21 21 21 21 21 21 20 20 19 19 19 19 18 18 18 18 18 18 18 18 18 17 17 17 17 17 17 17 18
29 30 30 30 30 31 30 30 31 31 30 29 28 28 27 26 25 24 23 22 22 22 21 21 21 20 20 20 19 19 18 18 19 19 18 18 18 18 18 18 18 18 17 17 17 17 17 17 18
30 30 30 30 30 30 30 30 31 31 30 30 29 28 27 26 25 24 23 22 22 22 21 21 21 20 20 20 19 19 19 18 18 18 18 18 18 18 18 18 18 18 18 17 17 17 17 17 17
29 29 29 30 30 29 30 30 31 32 31 30 30 28 27 26 25 24 23 22 22 21 21 21 20 20 20 20 19 19 19 19 18 18 18 18 18 18 18 18 18 18 18 17 17 17 17 17 17
29 29 29 28 29 29 30 29 30 31 30 30 29 28 26 26 25 24 23 22 21 21 21 20 20 20 20 20 19 19 19 19 18 18 18 18 18 18 18 18 18 18 18 18 18 17 17 17 17
29 30 29 28 29 30 29 29 31 30 29 28 27 27 26 25 25 24 23 22 21 21 21 20 20 20 20 19 19 19 19 18 18 18 18 18 17 18 18 18 18 18 17 17 17 17 17 17 17
29 30 31 30 29 29 30 30 30 30 29 28 27 27 26 25 25 24 23 22 21 21 21 20 20 20 19 19 19 19 19 19 18 18 18 18 18 17 17 17 17 17 17 17 17 17 17 17 17
30 30 29 29 28 28 29 29 30 30 29 29 28 27 26 25 25 24 23 22 21 21 20 20 20 19 19 19 19 19 19 18 18 18 18 18 18 18 17 17 17 17 17 17 17 17 17 17 17
28 29 29 29 30 28 28 29 31 30 29 29 28 27 26 25 24 23 22 21 21 20 20 20 19 19 19 19 19 18 18 18 18 18 18 18 17 17 17 17 17 17 17 17 17 17 16 16 16
29 29 29 28 28 28 29 30 30 30 29 28 27 26 25 24 23 23 22 21 20 20 20 19 19 19 19 18 18 18 18 18 17 17 17 17 17 17 17 17 17 17 16 17 16 16 16 16 16
Wind_Speed
8 6 5 4 2 7 13 11 9 8 7 7 6 4 6 7 6 10 11 16 16 16 17 16 14 15 15 15 15 15 16 16 15 15 15 15 15 15 15 15 15 15 15 15 16 16 16 16 16
4 4 4 2 4 10 12 9 10 9 8 8 6 6 7 8 8 12 14 16 17 16 17 16 16 15 15 15 15 15 15 15 15 14 14 14 14 14 14 14 14 15 15 15 15 15 16 16 16
4 5 3 3 9 11 11 8 9 8 7 5 5 6 6 7 9 11 14 18 16 15 16 17 15 15 14 14 14 14 14 14 14 14 13 13 13 14 14 14 14 14 14 14 15 15 15 15 15
4 4 1 6 13 11 9 8 7 8 7 5 6 8 7 6 7 12 18 18 16 15 16 17 15 15 14 14 13 13 13 13 13 13 13 13 13 13 13 13 13 13 13 14 14 14 14 14 14
4 2 5 10 12 9 7 6 4 5 5 6 6 9 8 6 11 17 18 17 16 15 15 17 14 14 13 13 13 12 12 12 12 12 12 12 12 12 12 13 12 12 12 13 13 13 13 13 13
3 1 6 10 11 8 7 5 4 6 7 7 8 11 7 8 14 17 16 15 15 14 15 17 14 13 13 12 12 12 11 11 11 11 11 11 11 11 11 12 12 12 12 12 12 12 12 12 11
2 3 8 9 9 8 6 4 4 6 7 7 7 9 9 11 15 16 15 13 13 13 13 15 15 14 12 11 11 11 11 10 10 10 10 10 11 11 10 10 11 11 11 11 11 11 10 10 10
3 2 7 7 8 8 6 5 5 5 7 8 5 6 10 15 15 15 14 13 12 12 12 12 13 13 13 12 11 10 10 10 10 10 9 10 11 10 10 10 10 10 10 10 10 10 10 9 9
4 2 6 6 6 7 6 6 5 5 8 6 4 5 14 20 18 16 14 13 12 11 10 11 11 11 10 11 12 11 10 10 10 10 9 9 8 9 9 10 10 9 9 9 9 9 9 9 9
3 2 6 5 4 5 5 4 5 6 7 7 8 12 19 19 18 17 16 15 14 13 12 10 10 10 9 8 10 9 9 10 7 7 8 6 5 5 7 12 9 8 8 8 8 8 8 8 8
1 2 4 3 2 2 4 5 4 4 4 5 11 17 20 19 17 16 15 15 14 13 12 11 10 9 9 7 7 6 6 7 7 7 6 5 6 6 6 8 9 9 9 8 8 8 5 4 3
2 2 1 1 1 1 3 4 4 1 3 5 12 19 20 19 18 16 15 14 13 13 12 11 10 9 8 7 6 6 6 6 6 7 6 6 4 4 5 4 5 6 5 4 5 4 3 2 3
3 2 1 0 2 2 2 3 2 2 4 9 15 19 19 18 16 14 13 13 13 13 12 11 10 10 8 7 6 6 5 6 6 6 6 5 5 4 4 3 3 4 4 5 4 3 3 3 4
2 1 1 2 2 3 4 3 3 3 8 12 16 17 18 17 16 14 13 13 13 13 12 11 11 10 9 8 6 5 6 5 5 6 6 6 4 4 4 5 4 4 4 4 4 4 4 4 3
4 4 5 4 3 3 4 5 4 5 10 12 14 15 16 16 15 15 14 13 13 12 12 11 11 11 10 9 9 7 6 6 6 6 7 7 6 5 5 4 5 4 4 4 5 5 5 4 4
7 8 7 5 4 4 7 4 5 7 10 11 12 13 14 15 15 14 13 12 12 11 11 11 10 11 11 9 8 7 7 6 6 7 7 8 8 7 6 5 5 5 6 5 4 5 5 4 5
9 9 7 7 4 4 7 3 5 7 9 10 12 13 14 15 15 14 13 13 12 11 11 11 11 11 11 10 8 8 7 7 7 7 7 8 9 9 8 6 5 6 5 5 5 5 5 5 5
10 9 8 6 5 6 8 5 3 6 8 9 11 13 14 15 15 14 13 13 12 11 11 11 11 11 10 9 8 7 8 8 8 8 8 9 9 10 9 7 7 7 6 5 5 4 5 5 6
6 8 7 5 2 5 7 7 4 5 8 10 11 12 14 14 13 13 13 13 12 11 11 11 11 11 10 8 9 8 9 8 8 9 10 11 11 10 9 8 7 7 7 7 7 6 7 7 6
9 9 8 5 3 5 6 7 4 5 7 8 10 12 13 12 13 13 13 13 13 13 12 12 12 12 11 9 8 7 7 8 8 8 9 12 12 11 10 9 8 8 7 8 8 8 7 6 6
11 11 8 5 4 6 7 9 7 5 5 6 9 10 12 13 14 14 14 14 13 13 14 12 13 12 12 10 8 6 6 6 7 8 9 11 13 13 11 10 10 8 9 8 9 9 9 7 7
11 7 6 7 8 7 7 8 7 5 5 6 7 9 11 12 13 13 13 14 14 13 12 12 12 11 11 11 10 10 9 9 9 8 8 9 11 12 12 12 11 10 9 9 10 10 9 9 8
6 5 7 8 9 8 8 9 6 6 6 6 6 7 9 11 12 12 12 12 12 11 11 11 11 11 11 11 11 11 11 9 8 7 8 8 9 11 12 11 11 10 9 10 10 9 10 9 9
7 7 6 7 9 12 10 9 7 5 5 3 4 5 6 8 9 10 10 10 10 10 10 9 10 10 11 11 11 11 11 10 9 8 7 7 7 8 10 10 9 10 9 10 10 10 11 10 10
12 11 8 10 10 10 6 8 6 1 1 2 2 3 5 7 9 10 10 11 10 10 10 9 10 10 10 11 10 10 11 10 10 8 7 7 6 7 8 9 8 9 9 10 10 9 10 10 10
16 16 11 9 10 8 7 8 4 2 1 1 1 3 5 7 8 9 10 10 10 10 10 9 10 9 9 9 9 9 9 8 7 7 6 6 6 7 7 8 8 9 10 10 9 9 10 9 10
14 15 13 9 7 8 7 5 5 5 4 3 3 4 5 7 8 8 9 9 9 9 9 9 8 8 8 8 8 7 7 6 6 5 6 5 5 5 6 7 8 8 9 9 9 8 9 8 9
10 12 9 11 9 11 9 9 7 7 7 5 5 5 5 7 8 8 8 8 8 8 8 7 7 7 6 6 6 5 5 5 4 4 4 4 4 4 5 6 7 7 7 7 7 8 7 7 8
11 13 11 11 10 9 8 6 3 4 4 5 5 5 5 6 7 8 8 8 8 8 7 7 6 6 5 5 5 4 4 4 3 3 3 3 3 3 4 5 5 5 6 6 6 7 7 7 8
16 15 15 12 9 10 9 4 5 3 3 4 4 5 6 6 7 8 9 9 8 8 7 7 6 5 5 5 4 4 3 3 2 2 2 1 1 2 2 2 3 4 4 4 5 6 5 6 6
Wind_Direction
199 199 223 238 177 83 74 72 77 89 85 87 94 72 67 51 45 95 121 134 134 134 131 134 126 123 121 119 118 117 116 113 111 110 108 106 105 105 104 104 104 104 104 104 103 102 102 103 103
190 202 231 237 83 86 77 72 77 77 94 111 99 85 79 70 68 112 132 135 139 136 136 133 128 126 124 122 120 118 117 115 113 110 108 107 106 105 105 106 105 105 106 106 105 105 104 105 105
206 235 266 80 69 72 80 79 86 95 107 114 98 72 64 84 109 127 136 142 140 134 131 129 134 130 128 126 123 120 119 116 114 112 110 108 106 106 105 106 105 106 106 107 107 107 107 107 106
235 225 192 82 81 72 80 92 105 110 105 98 108 92 82 87 120 132 140 145 140 140 139 133 138 134 133 130 127 125 122 118 116 115 112 110 109 107 106 106 106 106 108 109 109 109 109 109 108
246 246 105 89 83 84 88 96 107 97 94 103 106 102 93 88 119 134 144 146 146 144 138 137 141 137 136 135 132 129 126 122 118 116 114 112 111 109 108 108 108 108 110 112 112 110 110 111 111
242 189 97 89 90 92 93 103 112 94 101 110 114 111 94 118 135 142 147 149 147 145 141 135 141 141 140 138 135 132 130 127 124 121 117 115 113 111 111 111 111 111 112 115 115 113 112 113 113
306 89 90 92 97 97 87 99 99 98 108 111 118 110 120 139 142 146 147 148 148 148 143 147 150 148 146 141 139 137 135 133 129 126 122 119 117 115 115 114 114 114 115 116 118 117 115 117 118
302 136 108 96 96 93 101 105 93 99 102 114 124 125 144 149 148 147 148 152 153 154 152 153 155 152 156 152 146 143 140 136 132 130 129 128 127 124 127 130 119 120 120 121 121 119 118 122 126
267 167 103 91 90 99 120 126 111 103 120 121 94 99 133 145 150 152 155 158 160 161 160 163 158 159 162 155 148 156 151 146 150 148 146 163 153 141 149 115 124 127 126 125 124 123 127 136 138
254 117 86 72 62 94 130 137 133 143 138 131 118 114 131 148 157 163 167 168 169 171 172 170 169 163 167 161 157 168 167 159 172 151 160 162 138 135 126 120 133 135 135 136 131 138 162 186 152
242 78 82 93 63 87 142 144 151 161 147 154 152 147 151 158 166 172 175 176 174 176 177 174 173 171 177 168 171 171 167 161 169 161 165 154 159 157 151 151 154 157 166 164 153 180 182 162 122
207 106 62 81 91 152 153 153 160 174 66 114 150 154 159 168 174 178 178 179 176 181 182 180 176 180 184 184 175 177 178 176 172 164 184 169 173 169 157 167 163 169 173 169 179 181 168 168 167
201 156 125 177 197 177 170 165 170 137 112 127 143 156 165 172 177 181 181 182 182 186 187 185 184 184 186 190 200 188 188 184 176 174 182 192 186 181 170 170 186 189 174 179 197 200 186 201 201
173 196 193 163 160 169 187 177 196 144 136 144 154 165 171 175 177 179 184 187 190 192 191 187 190 190 192 194 200 198 198 199 196 191 187 200 203 190 188 188 195 200 201 199 200 203 203 218 218
206 209 185 155 172 173 207 203 203 152 152 159 166 171 175 179 182 186 188 191 193 194 193 192 194 194 199 203 204 203 205 200 206 199 197 206 211 201 209 207 203 207 200 191 210 215 218 218 217
207 212 200 160 176 176 228 210 146 158 171 176 176 176 179 184 190 192 191 194 195 195 193 195 198 196 201 207 209 210 209 207 214 210 203 208 213 215 222 224 218 207 215 211 209 221 221 224 234
204 207 196 166 182 202 233 237 134 170 188 189 185 184 186 187 195 195 195 195 196 196 195 195 201 201 203 204 207 216 210 215 218 215 214 209 213 217 224 231 231 225 224 224 233 212 231 231 237
201 204 199 196 178 220 231 237 182 189 201 201 192 191 191 193 197 196 197 195 195 195 195 197 200 202 203 203 204 214 216 217 218 219 222 222 219 220 227 227 225 231 229 229 238 238 237 247 246
216 214 206 189 181 226 230 241 223 198 206 207 201 197 198 198 194 194 194 196 194 194 196 199 203 199 200 203 206 208 214 218 219 220 220 223 228 224 228 243 226 231 232 233 231 234 232 238 242
217 214 204 179 185 235 233 243 225 210 217 219 213 207 203 198 192 192 192 193 196 197 199 200 203 202 203 207 212 217 222 221 224 228 223 225 227 227 226 230 233 230 232 232 233 232 241 239 228
218 222 215 201 196 218 240 230 213 200 212 216 217 214 209 204 199 193 194 196 198 201 203 203 202 203 207 208 212 217 221 227 225 224 224 224 224 224 230 228 231 231 233 232 231 230 235 241 236
214 216 219 212 223 216 231 247 210 205 216 217 217 214 211 206 202 197 197 199 202 203 203 205 202 203 206 208 215 216 225 231 232 229 229 228 227 227 226 230 229 230 234 233 233 230 234 237 242
213 177 206 217 232 241 225 255 226 194 234 225 215 213 212 206 200 197 197 198 202 202 200 200 202 203 206 211 216 220 230 236 241 239 236 234 232 230 228 226 227 227 235 236 239 238 236 234 241
169 169 186 218 231 235 232 249 247 219 242 240 210 205 203 197 191 190 188 185 189 194 194 193 198 201 205 210 216 223 232 238 243 241 239 235 233 230 226 226 228 230 233 234 236 239 235 238 244
195 198 204 212 221 233 205 239 252 242 259 272 261 196 188 185 181 180 178 176 179 184 185 187 192 197 202 208 215 224 233 239 242 244 243 243 238 230 227 229 230 235 235 235 234 234 238 237 240
206 214 223 227 226 214 191 235 231 158 181 231 213 174 173 172 171 172 173 171 173 178 179 181 186 193 198 206 214 223 231 238 243 244 248 243 243 241 234 230 231 234 235 234 230 233 234 236 240
202 220 236 244 252 243 215 222 225 202 202 188 167 162 164 161 162 163 163 166 168 172 170 175 180 185 191 200 206 214 224 236 251 254 251 253 248 242 232 230 236 238 236 235 234 235 236 236 239
229 212 214 230 231 238 231 231 231 199 201 183 174 166 155 153 154 152 153 157 158 161 161 167 172 175 182 193 200 199 211 221 233 249 257 259 253 245 234 230 236 240 238 232 232 240 237 236 241
196 205 214 226 238 244 241 226 181 195 193 184 172 161 158 155 148 146 147 145 147 153 157 161 163 166 176 184 187 191 198 202 209 231 245 253 255 247 241 232 235 236 236 234 233 238 237 237 241
209 211 208 215 220 237 257 225 125 181 192 178 162 155 152 148 142 141 141 139 143 147 148 148 149 159 166 169 169 170 176 186 191 209 229 235 249 266 253 236 229 233 239 240 239 237 236 239 245
Height
1502 1501 1502 1503 1498 1497 1504 1503 1500 1503 1505 1510 1512 1512 1512 1515 1518 1530 1535 1536 1539 1541 1542 1543 1545 1546 1548 1549 1550 1551 1552 1553 1554 1554 1555 1556 1556 1557 1558 1559 1559 1560 1561 1562 1562 1563 1563 1564 1565
1504 1503 1504 1501 1495 1506 1510 1503 1505 1507 1510 1513 1515 1516 1517 1522 1527 1531 1534 1537 1540 1543 1545 1546 1547 1548 1550 1551 1552 1553 1554 1555 1556 1557 1558 1558 1559 1560 1561 1561 1562 1563 1563 1564 1565 1565 1566 1566 1567
1504 1504 1504 1495 1499 1506 1510 1505 1508 1511 1513 1514 1516 1519 1522 1527 1531 1534 1536 1539 1543 1545 1547 1547 1549 1551 1552 1553 1555 1556 1557 1558 1559 1560 1560 1561 1562 1562 1563 1564 1565 1565 1566 1566 1567 1568 1568 1569 1570
1507 1507 1502 1497 1505 1505 1505 1507 1509 1511 1514 1515 1517 1521 1527 1532 1534 1536 1538 1541 1544 1547 1549 1549 1551 1553 1554 1556 1557 1558 1559 1560 1561 1562 1563 1563 1564 1565 1565 1566 1567 1568 1568 1569 1569 1570 1571 1571 1572
1507 1503 1497 1502 1505 1505 1506 1509 1510 1510 1513 1517 1518 1523 1530 1534 1535 1538 1540 1544 1547 1549 1551 1551 1553 1555 1556 1558 1559 1560 1561 1562 1563 1564 1565 1566 1566 1567 1568 1568 1569 1570 1570 1571 1572 1572 1573 1574 1575
1506 1498 1500 1507 1508 1506 1507 1511 1511 1512 1516 1519 1521 1524 1533 1536 1538 1540 1543 1547 1549 1552 1554 1553 1554 1556 1558 1559 1561 1562 1563 1564 1565 1566 1567 1568 1568 1569 1570 1570 1571 1572 1573 1573 1574 1575 1575 1576 1577
1505 1496 1502 1504 1507 1507 1509 1511 1511 1513 1517 1520 1523 1525 1534 1538 1540 1542 1545 1548 1551 1554 1555 1556 1557 1558 1559 1561 1562 1563 1565 1566 1567 1568 1569 1569 1570 1571 1572 1572 1573 1574 1575 1575 1576 1577 1578 1578 1579
1507 1499 1502 1503 1506 1508 1510 1512 1514 1515 1519 1524 1525 1526 1533 1538 1540 1543 1546 1549 1552 1555 1557 1558 1560 1561 1562 1563 1563 1565 1566 1567 1568 1569 1570 1571 1572 1573 1573 1574 1575 1576 1576 1577 1578 1579 1580 1580 1581
1508 1500 1504 1504 1505 1507 1511 1512 1516 1519 1521 1524 1526 1528 1531 1536 1540 1543 1547 1550 1552 1555 1557 1559 1561 1562 1564 1566 1565 1566 1567 1568 1570 1571 1571 1573 1575 1575 1576 1576 1576 1577 1578 1579 1580 1581 1582 1582 1583
1506 1502 1505 1505 1505 1506 1511 1512 1515 1517 1520 1524 1528 1531 1533 1536 1540 1543 1546 1549 1552 1554 1557 1559 1562 1563 1565 1567 1567 1569 1570 1570 1571 1572 1573 1574 1575 1577 1577 1577 1577 1578 1579 1581 1581 1582 1583 1584 1586
1505 1504 1505 1507 1509 1509 1510 1513 1515 1515 1517 1521 1526 1530 1533 1537 1541 1544 1547 1550 1552 1554 1557 1559 1561 1562 1565 1567 1568 1570 1571 1571 1572 1573 1573 1575 1576 1577 1578 1579 1579 1580 1581 1583 1583 1584 1586 1587 1587
1507 1508 1509 1508 1510 1510 1511 1512 1514 1516 1518 1522 1526 1529 1533 1537 1540 1544 1547 1550 1552 1554 1556 1559 1561 1562 1564 1566 1568 1569 1571 1572 1573 1573 1574 1576 1577 1578 1579 1579 1581 1582 1583 1583 1585 1585 1586 1586 1587
1507 1508 1510 1510 1511 1511 1512 1513 1514 1517 1520 1523 1526 1530 1533 1537 1541 1544 1547 1549 1551 1553 1556 1558 1559 1561 1563 1564 1567 1569 1570 1572 1573 1573 1574 1575 1577 1578 1579 1579 1580 1582 1583 1584 1584 1585 1585 1586 1587
1508 1509 1509 1509 1510 1512 1512 1513 1515 1517 1521 1524 1527 1530 1534 1537 1540 1543 1546 1548 1550 1552 1555 1557 1558 1560 1562 1564 1565 1567 1570 1570 1573 1573 1574 1574 1576 1577 1578 1579 1580 1581 1583 1584 1584 1585 1585 1586 1587
1510 1508 1507 1508 1510 1511 1512 1512 1513 1517 1521 1524 1527 1530 1534 1537 1540 1542 1544 1547 1549 1552 1554 1555 1557 1559 1561 1563 1565 1567 1569 1570 1571 1572 1572 1573 1575 1576 1577 1579 1579 1581 1582 1582 1583 1584 1585 1585 1586
1506 1506 1508 1507 1509 1511 1513 1511 1510 1516 1520 1523 1526 1530 1533 1536 1539 1541 1544 1546 1548 1550 1552 1554 1556 1558 1559 1561 1563 1566 1568 1569 1570 1571 1571 1572 1573 1575 1576 1578 1579 1579 1580 1581 1582 1583 1584 1585 1585
1505 1507 1507 1508 1508 1509 1509 1508 1510 1515 1518 1520 1524 1528 1531 1534 1537 1540 1542 1544 1546 1549 1551 1553 1555 1556 1558 1560 1561 1563 1564 1566 1567 1568 1569 1570 1572 1573 1574 1576 1577 1578 1579 1580 1581 1582 1582 1583 1583
1506 1504 1507 1508 1507 1508 1508 1507 1509 1513 1515 1517 1521 1525 1528 1531 1534 1537 1540 1542 1544 1547 1549 1551 1553 1555 1556 1558 1559 1561 1562 1564 1565 1566 1567 1568 1570 1571 1572 1574 1574 1576 1577 1577 1578 1579 1579 1581 1581
1501 1504 1507 1507 1507 1508 1508 1507 1507 1510 1513 1515 1518 1522 1525 1529 1533 1535 1538 1540 1542 1544 1546 1548 1550 1552 1554 1556 1557 1559 1560 1561 1562 1564 1564 1565 1567 1568 1569 1571 1572 1573 1574 1575 1576 1577 1578 1579 1579
1504 1507 1508 1509 1508 1508 1508 1507 1505 1508 1510 1512 1515 1518 1522 1526 1530 1532 1534 1537 1539 1541 1543 1545 1547 1550 1551 1553 1555 1556 1558 1559 1560 1561 1561 1562 1563 1565 1566 1567 1568 1570 1571 1571 1573 1574 1576 1576 1577
1506 1506 1506 1509 1509 1507 1508 1508 1504 1505 1509 1511 1513 1515 1518 1522 1525 1528 1531 1533 1535 1537 1539 1542 1544 1546 1548 1550 1552 1553 1554 1555 1556 1557 1557 1559 1560 1561 1562 1564 1565 1566 1567 1568 1569 1571 1572 1574 1574
1507 1502 1506 1508 1510 1508 1508 1512 1502 1501 1504 1506 1509 1511 1514 1518 1521 1525 1527 1530 1532 1534 1537 1539 1541 1543 1545 1547 1549 1550 1550 1551 1552 1553 1554 1555 1555 1557 1558 1560 1561 1562 1564 1565 1566 1568 1569 1570 1571
1501 1503 1505 1506 1508 1508 1507 1511 1501 1499 1502 1501 1505 1508 1510 1514 1517 1521 1523 1526 1529 1532 1534 1536 1538 1540 1541 1543 1545 1546 1547 1548 1549 1549 1550 1550 1551 1553 1554 1555 1557 1558 1559 1561 1563 1564 1565 1566 1567
1503 1506 1507 1506 1505 1518 1508 1512 1506 1494 1498 1498 1501 1505 1508 1511 1515 1518 1521 1524 1526 1529 1531 1533 1534 1536 1538 1539 1541 1542 1543 1544 1545 1545 1546 1546 1547 1548 1549 1550 1552 1553 1555 1556 1558 1560 1561 1562 1563
1503 1507 1517 1520 1519 1515 1503 1510 1502 1493 1496 1499 1501 1504 1507 1509 1512 1515 1518 1521 1523 1525 1527 1529 1531 1533 1534 1536 1538 1539 1539 1540 1541 1541 1542 1542 1543 1544 1544 1546 1547 1548 1550 1552 1553 1555 1556 1557 1558
1498 1498 1511 1521 1517 1508 1509 1508 1495 1493 1497 1500 1502 1503 1506 1508 1511 1513 1516 1519 1521 1523 1525 1527 1528 1530 1532 1533 1534 1536 1536 1537 1537 1538 1538 1538 1539 1540 1541 1541 1543 1544 1545 1547 1548 1550 1551 1552 1553
1496 1495 1487 1497 1503 1508 1502 1499 1494 1493 1496 1498 1500 1503 1505 1507 1510 1512 1515 1517 1519 1521 1523 1525 1526 1528 1529 1530 1532 1533 1533 1534 1535 1535 1535 1536 1536 1536 1537 1537 1539 1540 1541 1542 1543 1545 1546 1547 1548
1487 1487 1495 1500 1515 1517 1507 1504 1496 1492 1492 1495 1498 1501 1503 1506 1509 1511 1513 1516 1518 1520 1522 1524 1525 1526 1527 1529 1530 1531 1531 1532 1532 1532 1533 1533 1533 1533 1533 1534 1535 1536 1538 1538 1539 1540 1541 1542 1543
1493 1493 1492 1493 1495 1509 1512 1502 1482 1487 1490 1493 1496 1500 1503 1505 1508 1510 1513 1515 1517 1519 1521 1523 1524 1525 1526 1527 1528 1529 1530 1530 1530 1531 1531 1531 1531 1531 1531 1532 1532 1533 1534 1535 1536 1536 1537 1538 1539
1482 1484 1489 1500 1503 1500 1500 1496 1483 1486 1489 1492 1496 1500 1502 1505 1507 1510 1513 1515 1517 1519 1521 1522 1523 1524 1525 1526 1527 1527 1528 1529 1529 1530 1530 1530 1530 1530 1530 1530 1530 1531 1531 1532 1533 1533 1533 1534 1535